Time,TemperatureF,DewpointF,PressureIn,WindDirection,WindDirectionDegrees,WindSpeedMPH,WindSpeedGustMPH,Humidity,HourlyPrecipIn,Conditions,Clouds,dailyrainin,SoftwareType,DateUTC
2013-05-24 00:01:00,46.3,43.5,30.18,NW,307,8.0,8.0,90,0.00,,,0.00,Wunderground v.1.15,2013-05-24 04:01:00,
2013-05-24 00:02:00,46.3,43.5,30.18,NW,323,8.0,8.0,90,0.00,,,0.00,Wunderground v.1.15,2013-05-24 04:02:00,
2013-05-24 00:03:00,46.2,43.4,30.18,NNW,327,8.0,10.0,90,0.00,,,0.00,Wunderground v.1.15,2013-05-24 04:03:00,
2013-05-24 00:05:00,46.1,43.3,30.18,NW,321,8.0,10.0,90,0.00,,,0.00,Wunderground v.1.15,2013-05-24 04:05:00,
2013-05-24 00:06:00,46.0,43.5,30.18,NNW,335,7.0,10.0,91,0.00,,,0.00,Wunderground v.1.15,2013-05-24 04:06:00,
2013-05-24 00:11:00,45.8,43.3,30.19,NW,325,8.0,10.0,91,0.00,,,0.00,Wunderground v.1.15,2013-05-24 04:11:00,
2013-05-24 00:17:00,45.6,42.8,30.19,NW,324,9.0,14.0,90,0.00,,,0.00,Wunderground v.1.15,2013-05-24 04:17:00,
2013-05-24 00:23:00,45.4,42.6,30.19,NNW,339,10.0,13.0,90,0.00,,,0.00,Wunderground v.1.15,2013-05-24 04:23:00,
2013-05-24 00:29:00,45.3,42.8,30.19,NNW,332,10.0,15.0,91,0.00,,,0.00,Wunderground v.1.15,2013-05-24 04:29:00,
2013-05-24 00:35:00,45.1,42.6,30.19,NW,318,9.0,11.0,91,0.00,,,0.00,Wunderground v.1.15,2013-05-24 04:35:00,
2013-05-24 00:41:00,44.9,42.4,30.20,NNW,337,9.0,9.0,91,0.00,,,0.00,Wunderground v.1.15,2013-05-24 04:41:00,
2013-05-24 00:47:00,44.8,42.3,30.20,NW,320,8.0,10.0,91,0.00,,,0.00,Wunderground v.1.15,2013-05-24 04:47:00,
2013-05-24 00:52:00,44.7,42.5,30.20,NNW,333,8.0,8.0,92,0.00,,,0.00,Wunderground v.1.15,2013-05-24 04:52:00,
2013-05-24 00:58:00,44.9,42.4,30.20,NNW,338,8.0,12.0,91,0.00,,,0.00,Wunderground v.1.15,2013-05-24 04:58:00,
2013-05-24 01:04:00,45.2,42.7,30.20,NNW,338,9.0,11.0,91,0.00,,,0.00,Wunderground v.1.15,2013-05-24 05:04:00,
2013-05-24 01:10:00,45.3,42.8,30.20,NNW,342,9.0,12.0,91,0.00,,,0.00,Wunderground v.1.15,2013-05-24 05:10:00,
2013-05-24 01:16:00,45.5,42.7,30.20,NNW,340,9.0,10.0,90,0.00,,,0.00,Wunderground v.1.15,2013-05-24 05:16:00,
2013-05-24 01:22:00,45.5,42.7,30.21,NNW,328,10.0,12.0,90,0.00,,,0.00,Wunderground v.1.15,2013-05-24 05:22:00,
2013-05-24 01:28:00,45.5,42.7,30.21,NNW,330,11.0,14.0,90,0.00,,,0.00,Wunderground v.1.15,2013-05-24 05:28:00,
2013-05-24 01:33:00,45.5,42.7,30.21,NNW,332,10.0,11.0,90,0.00,,,0.00,Wunderground v.1.15,2013-05-24 05:33:00,
2013-05-24 01:39:00,45.5,42.7,30.21,North,357,8.0,11.0,90,0.00,,,0.00,Wunderground v.1.15,2013-05-24 05:39:00,
2013-05-24 01:45:00,45.5,42.7,30.21,NNW,332,9.0,11.0,90,0.00,,,0.00,Wunderground v.1.15,2013-05-24 05:45:00,
2013-05-24 01:51:00,45.5,43.0,30.21,NNW,333,9.0,15.0,91,0.00,,,0.00,Wunderground v.1.15,2013-05-24 05:51:00,
2013-05-24 01:57:00,45.5,42.7,30.21,NW,323,8.0,15.0,90,0.00,,,0.00,Wunderground v.1.15,2013-05-24 05:57:00,
2013-05-24 02:03:00,45.5,42.7,30.21,NW,312,8.0,8.0,90,0.00,,,0.00,Wunderground v.1.15,2013-05-24 06:03:00,
2013-05-24 02:09:00,45.5,43.0,30.21,NNW,333,7.0,8.0,91,0.00,,,0.00,Wunderground v.1.15,2013-05-24 06:09:00,
2013-05-24 02:14:00,45.6,42.8,30.21,WNW,294,7.0,9.0,90,0.00,,,0.00,Wunderground v.1.15,2013-05-24 06:14:00,
2013-05-24 02:20:00,45.7,42.9,30.21,NNW,334,8.0,9.0,90,0.00,,,0.00,Wunderground v.1.15,2013-05-24 06:20:00,
2013-05-24 02:26:00,45.7,43.2,30.22,NNW,338,7.0,10.0,91,0.00,,,0.00,Wunderground v.1.15,2013-05-24 06:26:00,
2013-05-24 02:32:00,45.8,43.0,30.21,NW,326,7.0,8.0,90,0.00,,,0.00,Wunderground v.1.15,2013-05-24 06:32:00,
2013-05-24 02:38:00,45.9,43.1,30.21,NNE,20,8.0,13.0,90,0.00,,,0.00,Wunderground v.1.15,2013-05-24 06:38:00,
2013-05-24 02:44:00,45.9,43.1,30.22,North,355,10.0,12.0,90,0.00,,,0.00,Wunderground v.1.15,2013-05-24 06:44:00,
2013-05-24 02:50:00,45.8,43.0,30.22,North,349,9.0,12.0,90,0.00,,,0.00,Wunderground v.1.15,2013-05-24 06:50:00,
2013-05-24 02:56:00,45.7,42.9,30.22,NNW,328,8.0,9.0,90,0.00,,,0.00,Wunderground v.1.15,2013-05-24 06:56:00,
2013-05-24 03:01:00,45.7,42.9,30.23,NNW,340,8.0,9.0,90,0.00,,,0.00,Wunderground v.1.15,2013-05-24 07:01:00,
2013-05-24 03:07:00,45.7,42.9,30.23,North,358,8.0,11.0,90,0.00,,,0.00,Wunderground v.1.15,2013-05-24 07:07:00,
2013-05-24 03:13:00,45.6,43.1,30.23,NW,316,8.0,8.0,91,0.00,,,0.00,Wunderground v.1.15,2013-05-24 07:13:00,
2013-05-24 03:19:00,45.5,43.0,30.23,NNW,336,7.0,8.0,91,0.00,,,0.00,Wunderground v.1.15,2013-05-24 07:19:00,
2013-05-24 03:25:00,45.3,42.5,30.23,NNW,335,7.0,9.0,90,0.00,,,0.00,Wunderground v.1.15,2013-05-24 07:25:00,
2013-05-24 03:31:00,45.1,42.3,30.24,NW,320,8.0,8.0,90,0.00,,,0.00,Wunderground v.1.15,2013-05-24 07:31:00,
2013-05-24 03:37:00,45.0,42.5,30.24,NNW,340,7.0,10.0,91,0.00,,,0.00,Wunderground v.1.15,2013-05-24 07:37:00,
2013-05-24 03:42:00,45.0,42.5,30.24,North,358,8.0,8.0,91,0.00,,,0.00,Wunderground v.1.15,2013-05-24 07:42:00,
2013-05-24 03:48:00,44.9,42.4,30.24,WNW,301,7.0,10.0,91,0.00,,,0.00,Wunderground v.1.15,2013-05-24 07:48:00,
2013-05-24 03:54:00,44.8,42.3,30.24,NW,316,7.0,10.0,91,0.00,,,0.00,Wunderground v.1.15,2013-05-24 07:54:00,
2013-05-24 04:01:00,44.6,42.1,30.25,NW,316,7.0,7.0,91,0.00,,,0.00,Wunderground v.1.15,2013-05-24 08:01:00,
2013-05-24 04:07:00,44.4,41.9,30.24,NNW,328,6.0,8.0,91,0.00,,,0.00,Wunderground v.1.15,2013-05-24 08:07:00,
2013-05-24 04:13:00,44.2,41.7,30.25,NNW,335,7.0,9.0,91,0.00,,,0.00,Wunderground v.1.15,2013-05-24 08:13:00,
2013-05-24 04:19:00,44.1,41.6,30.25,NNW,335,8.0,11.0,91,0.00,,,0.00,Wunderground v.1.15,2013-05-24 08:19:00,
2013-05-24 04:24:00,43.9,41.4,30.25,NNW,327,8.0,11.0,91,0.00,,,0.00,Wunderground v.1.15,2013-05-24 08:24:00,
2013-05-24 04:30:00,43.8,41.3,30.25,NNW,347,8.0,11.0,91,0.00,,,0.00,Wunderground v.1.15,2013-05-24 08:30:00,
2013-05-24 04:36:00,43.6,41.1,30.26,NNW,338,9.0,10.0,91,0.00,,,0.00,Wunderground v.1.15,2013-05-24 08:36:00,
2013-05-24 04:42:00,43.5,41.0,30.26,NNW,340,8.0,8.0,91,0.00,,,0.00,Wunderground v.1.15,2013-05-24 08:42:00,
2013-05-24 04:48:00,43.2,41.0,30.26,North,349,7.0,9.0,92,0.00,,,0.00,Wunderground v.1.15,2013-05-24 08:48:00,
2013-05-24 04:54:00,43.2,41.0,30.26,North,1,7.0,9.0,92,0.00,,,0.00,Wunderground v.1.15,2013-05-24 08:54:00,
2013-05-24 05:01:00,43.0,40.8,30.26,NNE,16,7.0,7.0,92,0.00,,,0.00,Wunderground v.1.15,2013-05-24 09:01:00,
2013-05-24 05:07:00,42.9,40.7,30.26,NW,324,7.0,8.0,92,0.00,,,0.00,Wunderground v.1.15,2013-05-24 09:07:00,
2013-05-24 05:13:00,42.7,40.8,30.26,NNW,345,7.0,7.0,93,0.00,,,0.00,Wunderground v.1.15,2013-05-24 09:13:00,
2013-05-24 05:19:00,42.6,40.7,30.27,North,9,6.0,7.0,93,0.00,,,0.00,Wunderground v.1.15,2013-05-24 09:19:00,
2013-05-24 05:24:00,42.5,40.6,30.27,NNW,331,5.0,6.0,93,0.00,,,0.00,Wunderground v.1.15,2013-05-24 09:24:00,
2013-05-24 05:30:00,42.4,40.5,30.27,NNW,328,5.0,6.0,93,0.00,,,0.00,Wunderground v.1.15,2013-05-24 09:30:00,
2013-05-24 05:36:00,42.2,40.3,30.27,North,349,4.0,6.0,93,0.00,,,0.00,Wunderground v.1.15,2013-05-24 09:36:00,
2013-05-24 05:42:00,42.0,40.4,30.27,NNW,333,3.0,5.0,94,0.00,,,0.00,Wunderground v.1.15,2013-05-24 09:42:00,
2013-05-24 05:48:00,41.9,40.3,30.27,North,11,3.0,5.0,94,0.00,,,0.00,Wunderground v.1.15,2013-05-24 09:48:00,
2013-05-24 05:54:00,41.8,40.2,30.28,North,356,3.0,5.0,94,0.00,,,0.00,Wunderground v.1.15,2013-05-24 09:54:00,
2013-05-24 06:01:00,41.7,40.1,30.28,NNW,338,2.0,2.0,94,0.00,,,0.00,Wunderground v.1.15,2013-05-24 10:01:00,
2013-05-24 06:07:00,41.6,40.0,30.28,North,355,2.0,5.0,94,0.00,,,0.00,Wunderground v.1.15,2013-05-24 10:07:00,
2013-05-24 06:12:00,41.6,40.0,30.28,NW,325,2.0,5.0,94,0.00,,,0.00,Wunderground v.1.15,2013-05-24 10:12:00,
2013-05-24 06:18:00,41.4,39.8,30.28,NW,320,2.0,5.0,94,0.00,,,0.00,Wunderground v.1.15,2013-05-24 10:18:00,
2013-05-24 06:24:00,41.4,39.8,30.29,NW,318,3.0,5.0,94,0.00,,,0.00,Wunderground v.1.15,2013-05-24 10:24:00,
2013-05-24 06:30:00,41.3,40.0,30.29,NW,314,3.0,5.0,95,0.00,,,0.00,Wunderground v.1.15,2013-05-24 10:30:00,
2013-05-24 06:36:00,41.2,39.9,30.30,WNW,300,4.0,5.0,95,0.00,,,0.00,Wunderground v.1.15,2013-05-24 10:36:00,
2013-05-24 06:42:00,41.5,39.9,30.30,NW,319,4.0,5.0,94,0.00,,,0.00,Wunderground v.1.15,2013-05-24 10:42:00,
2013-05-24 06:48:00,41.7,40.1,30.30,NW,321,4.0,6.0,94,0.00,,,0.00,Wunderground v.1.15,2013-05-24 10:48:00,
2013-05-24 06:53:00,41.8,39.9,30.30,NNW,333,4.0,6.0,93,0.00,,,0.00,Wunderground v.1.15,2013-05-24 10:53:00,
2013-05-24 06:59:00,41.9,40.0,30.30,NNW,330,5.0,6.0,93,0.00,,,0.00,Wunderground v.1.15,2013-05-24 10:59:00,
2013-05-24 07:05:00,41.9,40.0,30.31,NW,324,5.0,7.0,93,0.00,,,0.00,Wunderground v.1.15,2013-05-24 11:05:00,
2013-05-24 07:11:00,42.0,39.8,30.31,NNW,327,6.0,8.0,92,0.00,,,0.00,Wunderground v.1.15,2013-05-24 11:11:00,
2013-05-24 07:17:00,42.0,39.8,30.31,NW,326,6.0,8.0,92,0.00,,,0.00,Wunderground v.1.15,2013-05-24 11:17:00,
2013-05-24 07:22:00,42.0,39.8,30.32,NNW,347,6.0,6.0,92,0.00,,,0.00,Wunderground v.1.15,2013-05-24 11:22:00,
2013-05-24 07:28:00,41.9,39.7,30.32,NW,323,6.0,7.0,92,0.00,,,0.00,Wunderground v.1.15,2013-05-24 11:28:00,
2013-05-24 07:34:00,42.0,39.8,30.32,NNW,339,6.0,8.0,92,0.00,,,0.00,Wunderground v.1.15,2013-05-24 11:34:00,
2013-05-24 07:40:00,42.0,39.8,30.32,NNW,337,6.0,8.0,92,0.00,,,0.00,Wunderground v.1.15,2013-05-24 11:40:00,
2013-05-24 07:46:00,42.2,40.3,30.32,NW,312,6.0,8.0,93,0.00,,,0.00,Wunderground v.1.15,2013-05-24 11:46:00,
2013-05-24 07:52:00,42.2,39.8,30.33,NNW,335,8.0,11.0,91,0.00,,,0.00,Wunderground v.1.15,2013-05-24 11:52:00,
2013-05-24 07:58:00,42.2,40.0,30.33,North,360,10.0,11.0,92,0.00,,,0.00,Wunderground v.1.15,2013-05-24 11:58:00,
2013-05-24 08:03:00,42.4,40.0,30.33,North,5,10.0,11.0,91,0.00,,,0.00,Wunderground v.1.15,2013-05-24 12:03:00,
2013-05-24 08:09:00,42.6,40.2,30.34,NNW,333,9.0,13.0,91,0.00,,,0.00,Wunderground v.1.15,2013-05-24 12:09:00,
2013-05-24 08:15:00,42.7,40.0,30.34,NNW,335,10.0,13.0,90,0.00,,,0.00,Wunderground v.1.15,2013-05-24 12:15:00,
2013-05-24 08:21:00,42.9,40.2,30.35,NNW,342,10.0,10.0,90,0.00,,,0.00,Wunderground v.1.15,2013-05-24 12:21:00,
2013-05-24 08:27:00,43.2,39.9,30.35,NNE,13,10.0,11.0,88,0.00,,,0.00,Wunderground v.1.15,2013-05-24 12:27:00,
2013-05-24 08:33:00,43.4,40.1,30.35,NNW,332,11.0,12.0,88,0.00,,,0.00,Wunderground v.1.15,2013-05-24 12:33:00,
2013-05-24 08:39:00,43.5,40.5,30.36,NW,321,10.0,12.0,89,0.00,,,0.00,Wunderground v.1.15,2013-05-24 12:39:00,
2013-05-24 08:45:00,43.6,40.3,30.36,NNW,334,8.0,9.0,88,0.00,,,0.00,Wunderground v.1.15,2013-05-24 12:45:00,
2013-05-24 08:50:00,43.6,40.3,30.36,NNW,333,8.0,9.0,88,0.00,,,0.00,Wunderground v.1.15,2013-05-24 12:50:00,
2013-05-24 08:56:00,44.2,41.2,30.36,North,6,8.0,13.0,89,0.00,,,0.00,Wunderground v.1.15,2013-05-24 12:56:00,
2013-05-24 09:01:00,44.2,40.3,30.36,NE,53,8.0,8.0,86,0.00,,,0.00,Wunderground v.1.15,2013-05-24 13:01:00,
2013-05-24 09:07:00,44.5,40.3,30.36,North,349,8.0,10.0,85,0.00,,,0.00,Wunderground v.1.15,2013-05-24 13:07:00,
2013-05-24 09:13:00,44.9,41.0,30.37,NNW,333,8.0,12.0,86,0.00,,,0.00,Wunderground v.1.15,2013-05-24 13:13:00,
2013-05-24 09:19:00,45.1,40.6,30.37,NNW,346,8.0,12.0,84,0.00,,,0.00,Wunderground v.1.15,2013-05-24 13:19:00,
2013-05-24 09:25:00,45.6,41.0,30.37,NNW,347,8.0,11.0,84,0.00,,,0.00,Wunderground v.1.15,2013-05-24 13:25:00,
2013-05-24 09:30:00,46.0,41.1,30.37,NNE,23,9.0,12.0,83,0.00,,,0.00,Wunderground v.1.15,2013-05-24 13:30:00,
2013-05-24 09:36:00,46.3,41.1,30.38,NNW,334,9.0,11.0,82,0.00,,,0.00,Wunderground v.1.15,2013-05-24 13:36:00,
2013-05-24 09:42:00,46.7,41.2,30.38,NNW,345,8.0,10.0,81,0.00,,,0.00,Wunderground v.1.15,2013-05-24 13:42:00,
2013-05-24 09:48:00,46.8,40.6,30.38,NNW,327,9.0,14.0,79,0.00,,,0.00,Wunderground v.1.15,2013-05-24 13:48:00,
2013-05-24 09:54:00,47.0,40.8,30.38,North,11,11.0,14.0,79,0.00,,,0.00,Wunderground v.1.15,2013-05-24 13:54:00,
2013-05-24 10:01:00,47.3,41.4,30.38,North,1,10.0,10.0,80,0.00,,,0.00,Wunderground v.1.15,2013-05-24 14:01:00,
2013-05-24 10:07:00,47.9,42.0,30.38,NNW,337,8.0,13.0,80,0.00,,,0.00,Wunderground v.1.15,2013-05-24 14:07:00,
2013-05-24 10:13:00,48.0,41.8,30.38,NNW,333,9.0,10.0,79,0.00,,,0.00,Wunderground v.1.15,2013-05-24 14:13:00,
2013-05-24 10:19:00,48.5,42.9,30.38,NNW,344,9.0,11.0,81,0.00,,,0.00,Wunderground v.1.15,2013-05-24 14:19:00,
2013-05-24 10:24:00,48.7,41.8,30.39,NNW,335,8.0,10.0,77,0.00,,,0.00,Wunderground v.1.15,2013-05-24 14:24:00,
2013-05-24 10:30:00,48.6,41.7,30.39,NNW,332,8.0,10.0,77,0.00,,,0.00,Wunderground v.1.15,2013-05-24 14:30:00,
2013-05-24 10:36:00,48.8,41.9,30.38,North,354,8.0,10.0,77,0.00,,,0.00,Wunderground v.1.15,2013-05-24 14:36:00,
2013-05-24 10:42:00,48.9,41.3,30.39,NNW,334,9.0,9.0,75,0.00,,,0.00,Wunderground v.1.15,2013-05-24 14:42:00,
2013-05-24 10:48:00,49.4,42.5,30.39,North,349,9.0,13.0,77,0.00,,,0.00,Wunderground v.1.15,2013-05-24 14:48:00,
2013-05-24 10:54:00,49.6,42.0,30.39,NNE,20,9.0,11.0,75,0.00,,,0.00,Wunderground v.1.15,2013-05-24 14:54:00,
2013-05-24 11:01:00,50.2,42.6,30.39,NW,323,9.0,9.0,75,0.00,,,0.00,Wunderground v.1.15,2013-05-24 15:01:00,
2013-05-24 11:07:00,50.8,42.1,30.39,NNW,344,9.0,13.0,72,0.00,,,0.00,Wunderground v.1.15,2013-05-24 15:07:00,
2013-05-24 11:12:00,50.9,42.6,30.39,North,10,9.0,11.0,73,0.00,,,0.00,Wunderground v.1.15,2013-05-24 15:12:00,
2013-05-24 11:18:00,51.0,41.6,30.39,NW,326,9.0,12.0,70,0.00,,,0.00,Wunderground v.1.15,2013-05-24 15:18:00,
2013-05-24 11:24:00,51.2,41.0,30.39,NNW,333,10.0,10.0,68,0.00,,,0.00,Wunderground v.1.15,2013-05-24 15:24:00,
2013-05-24 11:30:00,51.2,41.4,30.39,NE,36,9.0,13.0,69,0.00,,,0.00,Wunderground v.1.15,2013-05-24 15:30:00,
2013-05-24 11:36:00,51.8,42.3,30.39,NNE,13,11.0,16.0,70,0.00,,,0.00,Wunderground v.1.15,2013-05-24 15:36:00,
2013-05-24 11:42:00,52.0,41.0,30.39,NNW,330,11.0,11.0,66,0.00,,,0.00,Wunderground v.1.15,2013-05-24 15:42:00,
2013-05-24 11:47:00,52.0,41.0,30.39,NW,323,10.0,15.0,66,0.00,,,0.00,Wunderground v.1.15,2013-05-24 15:47:00,
2013-05-24 11:53:00,52.4,41.0,30.39,NNW,332,10.0,12.0,65,0.00,,,0.00,Wunderground v.1.15,2013-05-24 15:53:00,
2013-05-24 11:59:00,52.4,40.6,30.39,NNW,330,10.0,12.0,64,0.00,,,0.00,Wunderground v.1.15,2013-05-24 15:59:00,
2013-05-24 12:05:00,52.2,40.8,30.39,North,354,10.0,14.0,65,0.00,,,0.00,Wunderground v.1.15,2013-05-24 16:05:00,
2013-05-24 12:11:00,52.5,42.2,30.39,NW,326,10.0,10.0,68,0.00,,,0.00,Wunderground v.1.15,2013-05-24 16:11:00,
2013-05-24 12:17:00,53.0,41.1,30.40,North,349,9.0,17.0,64,0.00,,,0.00,Wunderground v.1.15,2013-05-24 16:17:00,
2013-05-24 12:23:00,53.0,41.9,30.40,NNW,333,11.0,11.0,66,0.00,,,0.00,Wunderground v.1.15,2013-05-24 16:23:00,
2013-05-24 12:29:00,53.3,39.3,30.40,North,354,10.0,14.0,59,0.00,,,0.00,Wunderground v.1.15,2013-05-24 16:29:00,
2013-05-24 12:34:00,53.7,41.4,30.40,NNE,13,11.0,13.0,63,0.00,,,0.00,Wunderground v.1.15,2013-05-24 16:34:00,
2013-05-24 12:40:00,53.9,41.2,30.40,NNW,327,11.0,14.0,62,0.00,,,0.00,Wunderground v.1.15,2013-05-24 16:40:00,
2013-05-24 12:46:00,54.1,41.8,30.39,NW,306,10.0,14.0,63,0.00,,,0.00,Wunderground v.1.15,2013-05-24 16:46:00,
2013-05-24 12:52:00,54.3,39.8,30.39,North,356,9.0,11.0,58,0.00,,,0.00,Wunderground v.1.15,2013-05-24 16:52:00,
2013-05-24 12:58:00,54.5,39.6,30.39,NW,306,11.0,16.0,57,0.00,,,0.00,Wunderground v.1.15,2013-05-24 16:58:00,
2013-05-24 13:04:00,54.5,40.5,30.39,NNE,14,12.0,18.0,59,0.00,,,0.00,Wunderground v.1.15,2013-05-24 17:04:00,
2013-05-24 13:10:00,54.7,40.2,30.39,NNW,333,10.0,18.0,58,0.00,,,0.00,Wunderground v.1.15,2013-05-24 17:10:00,
2013-05-24 13:16:00,54.8,40.7,30.40,NNW,336,8.0,14.0,59,0.00,,,0.00,Wunderground v.1.15,2013-05-24 17:16:00,
2013-05-24 13:22:00,55.3,42.1,30.39,NNW,342,10.0,11.0,61,0.00,,,0.00,Wunderground v.1.15,2013-05-24 17:22:00,
2013-05-24 13:27:00,55.3,39.4,30.39,NNW,327,9.0,14.0,55,0.00,,,0.00,Wunderground v.1.15,2013-05-24 17:27:00,
2013-05-24 13:33:00,55.6,41.5,30.39,North,352,10.0,16.0,59,0.00,,,0.00,Wunderground v.1.15,2013-05-24 17:33:00,
2013-05-24 13:39:00,55.9,41.3,30.39,NNE,26,11.0,16.0,58,0.00,,,0.00,Wunderground v.1.15,2013-05-24 17:39:00,
2013-05-24 13:45:00,55.8,39.4,30.39,NW,320,10.0,16.0,54,0.00,,,0.00,Wunderground v.1.15,2013-05-24 17:45:00,
2013-05-24 13:51:00,55.9,40.0,30.39,NNW,343,11.0,11.0,55,0.00,,,0.00,Wunderground v.1.15,2013-05-24 17:51:00,
2013-05-24 13:57:00,56.3,40.3,30.39,North,6,9.0,16.0,55,0.00,,,0.00,Wunderground v.1.15,2013-05-24 17:57:00,
2013-05-24 14:03:00,56.2,40.2,30.39,NNW,330,11.0,13.0,55,0.00,,,0.00,Wunderground v.1.15,2013-05-24 18:03:00,
2013-05-24 14:08:00,56.4,40.9,30.39,NW,306,11.0,13.0,56,0.00,,,0.00,Wunderground v.1.15,2013-05-24 18:08:00,
2013-05-24 14:14:00,56.8,40.3,30.39,North,349,8.0,12.0,54,0.00,,,0.00,Wunderground v.1.15,2013-05-24 18:14:00,
2013-05-24 14:20:00,57.0,40.0,30.39,NW,311,10.0,14.0,53,0.00,,,0.00,Wunderground v.1.15,2013-05-24 18:20:00,
2013-05-24 14:26:00,57.0,39.5,30.39,NNW,338,11.0,14.0,52,0.00,,,0.00,Wunderground v.1.15,2013-05-24 18:26:00,
2013-05-24 14:32:00,57.5,42.8,30.38,SW,232,9.0,10.0,58,0.00,,,0.00,Wunderground v.1.15,2013-05-24 18:32:00,
2013-05-24 14:38:00,57.7,41.6,30.38,NNW,344,11.0,20.0,55,0.00,,,0.00,Wunderground v.1.15,2013-05-24 18:38:00,
2013-05-24 14:44:00,57.8,39.3,30.38,NW,311,12.0,13.0,50,0.00,,,0.00,Wunderground v.1.15,2013-05-24 18:44:00,
2013-05-24 14:49:00,58.0,41.4,30.38,North,350,10.0,19.0,54,0.00,,,0.00,Wunderground v.1.15,2013-05-24 18:49:00,
2013-05-24 14:55:00,58.2,38.1,30.38,NNW,346,13.0,16.0,47,0.00,,,0.00,Wunderground v.1.15,2013-05-24 18:55:00,
2013-05-24 15:01:00,58.4,39.3,30.38,NNW,340,12.0,12.0,49,0.00,,,0.00,Wunderground v.1.15,2013-05-24 19:01:00,
2013-05-24 15:07:00,58.4,39.8,30.38,NW,306,9.0,12.0,50,0.00,,,0.00,Wunderground v.1.15,2013-05-24 19:07:00,
2013-05-24 15:13:00,59.1,41.0,30.37,NNW,330,7.0,12.0,51,0.00,,,0.00,Wunderground v.1.15,2013-05-24 19:13:00,
2013-05-24 15:19:00,59.3,40.1,30.37,NW,317,9.0,14.0,49,0.00,,,0.00,Wunderground v.1.15,2013-05-24 19:19:00,
2013-05-24 15:25:00,59.2,39.0,30.37,NNW,344,11.0,13.0,47,0.00,,,0.00,Wunderground v.1.15,2013-05-24 19:25:00,
2013-05-24 15:30:00,59.1,40.5,30.37,NNW,331,12.0,13.0,50,0.00,,,0.00,Wunderground v.1.15,2013-05-24 19:30:00,
2013-05-24 15:36:00,59.5,40.8,30.38,North,1,11.0,13.0,50,0.00,,,0.00,Wunderground v.1.15,2013-05-24 19:36:00,
2013-05-24 15:42:00,59.3,38.5,30.37,NW,316,10.0,11.0,46,0.00,,,0.00,Wunderground v.1.15,2013-05-24 19:42:00,
2013-05-24 15:48:00,59.8,40.1,30.37,NNW,330,9.0,14.0,48,0.00,,,0.00,Wunderground v.1.15,2013-05-24 19:48:00,
2013-05-24 15:54:00,59.9,40.7,30.37,North,4,12.0,16.0,49,0.00,,,0.00,Wunderground v.1.15,2013-05-24 19:54:00,
2013-05-24 16:01:00,59.9,38.5,30.37,NNW,337,10.0,16.0,45,0.00,,,0.00,Wunderground v.1.15,2013-05-24 20:01:00,
2013-05-24 16:07:00,60.2,38.2,30.37,NW,305,12.0,17.0,44,0.00,,,0.00,Wunderground v.1.15,2013-05-24 20:07:00,
2013-05-24 16:12:00,60.2,38.2,30.37,NNW,348,12.0,12.0,44,0.00,,,0.00,Wunderground v.1.15,2013-05-24 20:12:00,
2013-05-24 16:18:00,60.3,38.3,30.37,North,360,12.0,17.0,44,0.00,,,0.00,Wunderground v.1.15,2013-05-24 20:18:00,
2013-05-24 16:24:00,60.5,39.6,30.36,NNE,22,11.0,12.0,46,0.00,,,0.00,Wunderground v.1.15,2013-05-24 20:24:00,
2013-05-24 16:30:00,60.9,40.0,30.36,North,352,10.0,12.0,46,0.00,,,0.00,Wunderground v.1.15,2013-05-24 20:30:00,
2013-05-24 16:36:00,60.9,38.8,30.36,NNW,331,10.0,15.0,44,0.00,,,0.00,Wunderground v.1.15,2013-05-24 20:36:00,
2013-05-24 16:42:00,61.3,40.3,30.36,NNW,345,10.0,10.0,46,0.00,,,0.00,Wunderground v.1.15,2013-05-24 20:42:00,
2013-05-24 16:48:00,61.3,37.4,30.36,NNE,13,11.0,15.0,41,0.00,,,0.00,Wunderground v.1.15,2013-05-24 20:48:00,
2013-05-24 16:54:00,61.1,39.0,30.35,NNW,337,11.0,11.0,44,0.00,,,0.00,Wunderground v.1.15,2013-05-24 20:54:00,
2013-05-24 16:59:00,61.3,36.8,30.35,NW,317,9.0,11.0,40,0.00,,,0.00,Wunderground v.1.15,2013-05-24 20:59:00,
2013-05-24 17:05:00,61.8,38.4,30.36,North,352,8.0,10.0,42,0.00,,,0.00,Wunderground v.1.15,2013-05-24 21:05:00,
2013-05-24 17:11:00,61.8,37.2,30.35,NNW,330,7.0,8.0,40,0.00,,,0.00,Wunderground v.1.15,2013-05-24 21:11:00,
2013-05-24 17:17:00,61.9,39.1,30.35,NNE,15,7.0,10.0,43,0.00,,,0.00,Wunderground v.1.15,2013-05-24 21:17:00,
2013-05-24 17:23:00,62.0,40.4,30.35,North,354,7.0,9.0,45,0.00,,,0.00,Wunderground v.1.15,2013-05-24 21:23:00,
2013-05-24 17:29:00,61.7,37.1,30.35,NNW,334,10.0,15.0,40,0.00,,,0.00,Wunderground v.1.15,2013-05-24 21:29:00,
2013-05-24 17:35:00,61.8,37.2,30.35,NNE,16,11.0,11.0,40,0.00,,,0.00,Wunderground v.1.15,2013-05-24 21:35:00,
2013-05-24 17:40:00,62.1,38.1,30.35,NNE,20,9.0,11.0,41,0.00,,,0.00,Wunderground v.1.15,2013-05-24 21:40:00,
2013-05-24 17:46:00,62.3,38.9,30.35,North,9,9.0,12.0,42,0.00,,,0.00,Wunderground v.1.15,2013-05-24 21:46:00,
2013-05-24 17:52:00,62.1,38.7,30.34,North,360,8.0,13.0,42,0.00,,,0.00,Wunderground v.1.15,2013-05-24 21:52:00,
2013-05-24 17:57:00,62.1,39.3,30.34,NNW,342,9.0,14.0,43,0.00,,,0.00,Wunderground v.1.15,2013-05-24 21:57:00,
2013-05-24 18:03:00,62.2,37.6,30.34,NNW,328,9.0,10.0,40,0.00,,,0.00,Wunderground v.1.15,2013-05-24 22:03:00,
2013-05-24 18:09:00,62.2,36.9,30.33,North,6,8.0,10.0,39,0.00,,,0.00,Wunderground v.1.15,2013-05-24 22:09:00,
2013-05-24 18:15:00,62.4,37.7,30.33,NNW,333,9.0,13.0,40,0.00,,,0.00,Wunderground v.1.15,2013-05-24 22:15:00,
2013-05-24 18:20:00,62.4,38.4,30.33,NNW,333,9.0,13.0,41,0.00,,,0.00,Wunderground v.1.15,2013-05-24 22:20:00,
2013-05-24 18:26:00,62.5,38.5,30.33,North,11,7.0,11.0,41,0.00,,,0.00,Wunderground v.1.15,2013-05-24 22:26:00,
2013-05-24 18:32:00,62.7,38.0,30.33,North,350,6.0,9.0,40,0.00,,,0.00,Wunderground v.1.15,2013-05-24 22:32:00,
2013-05-24 18:37:00,62.4,37.1,30.33,NW,323,7.0,9.0,39,0.00,,,0.00,Wunderground v.1.15,2013-05-24 22:37:00,
2013-05-24 18:43:00,62.8,38.7,30.32,NNE,15,6.0,7.0,41,0.00,,,0.00,Wunderground v.1.15,2013-05-24 22:43:00,
2013-05-24 18:49:00,62.6,37.9,30.32,NW,321,5.0,7.0,40,0.00,,,0.00,Wunderground v.1.15,2013-05-24 22:49:00,
2013-05-24 18:55:00,62.6,37.3,30.32,NW,323,6.0,9.0,39,0.00,,,0.00,Wunderground v.1.15,2013-05-24 22:55:00,
2013-05-24 19:01:00,62.5,39.1,30.31,North,360,7.0,8.0,42,0.00,,,0.00,Wunderground v.1.15,2013-05-24 23:01:00,
2013-05-24 19:07:00,62.4,37.7,30.31,North,4,7.0,8.0,40,0.00,,,0.00,Wunderground v.1.15,2013-05-24 23:07:00,
2013-05-24 19:13:00,62.4,38.4,30.31,NNW,339,5.0,7.0,41,0.00,,,0.00,Wunderground v.1.15,2013-05-24 23:13:00,
2013-05-24 19:18:00,62.4,38.4,30.31,North,360,5.0,8.0,41,0.00,,,0.00,Wunderground v.1.15,2013-05-24 23:18:00,
2013-05-24 19:24:00,62.4,39.6,30.31,North,360,6.0,7.0,43,0.00,,,0.00,Wunderground v.1.15,2013-05-24 23:24:00,
2013-05-24 19:30:00,62.2,38.8,30.31,NNE,20,6.0,9.0,42,0.00,,,0.00,Wunderground v.1.15,2013-05-24 23:30:00,
2013-05-24 19:36:00,62.2,38.8,30.30,NNE,24,6.0,8.0,42,0.00,,,0.00,Wunderground v.1.15,2013-05-24 23:36:00,
2013-05-24 19:42:00,62.1,39.9,30.30,NNE,20,5.0,9.0,44,0.00,,,0.00,Wunderground v.1.15,2013-05-24 23:42:00,
2013-05-24 19:48:00,62.1,41.1,30.30,North,11,5.0,9.0,46,0.00,,,0.00,Wunderground v.1.15,2013-05-24 23:48:00,
2013-05-24 19:54:00,61.9,40.3,30.30,NNE,30,6.0,10.0,45,0.00,,,0.00,Wunderground v.1.15,2013-05-24 23:54:00,
2013-05-24 19:59:00,61.8,40.8,30.30,North,352,6.0,10.0,46,0.00,,,0.00,Wunderground v.1.15,2013-05-24 23:59:00,
2013-05-24 20:05:00,61.9,41.4,30.30,NW,319,4.0,5.0,47,0.00,,,0.00,Wunderground v.1.15,2013-05-25 00:05:00,
2013-05-24 20:11:00,61.7,40.7,30.30,NNW,333,4.0,4.0,46,0.00,,,0.00,Wunderground v.1.15,2013-05-25 00:11:00,
2013-05-24 20:17:00,61.6,40.6,30.31,North,11,4.0,6.0,46,0.00,,,0.00,Wunderground v.1.15,2013-05-25 00:17:00,
2013-05-24 20:23:00,61.3,40.9,30.31,NNW,345,4.0,5.0,47,0.00,,,0.00,Wunderground v.1.15,2013-05-25 00:23:00,
2013-05-24 20:29:00,61.0,41.2,30.31,North,3,4.0,5.0,48,0.00,,,0.00,Wunderground v.1.15,2013-05-25 00:29:00,
2013-05-24 20:35:00,60.3,40.0,30.31,NNW,333,4.0,6.0,47,0.00,,,0.00,Wunderground v.1.15,2013-05-25 00:35:00,
2013-05-24 20:40:00,59.8,40.1,30.31,NNW,347,4.0,6.0,48,0.00,,,0.00,Wunderground v.1.15,2013-05-25 00:40:00,
2013-05-24 20:46:00,59.2,40.6,30.31,NNW,348,3.0,5.0,50,0.00,,,0.00,Wunderground v.1.15,2013-05-25 00:46:00,
2013-05-24 20:52:00,58.7,41.1,30.31,NNW,333,4.0,5.0,52,0.00,,,0.00,Wunderground v.1.15,2013-05-25 00:52:00,
2013-05-24 20:58:00,58.2,40.6,30.31,NNW,339,3.0,5.0,52,0.00,,,0.00,Wunderground v.1.15,2013-05-25 00:58:00,
2013-05-24 21:04:00,57.8,41.3,30.31,NNW,333,3.0,5.0,54,0.00,,,0.00,Wunderground v.1.15,2013-05-25 01:04:00,
2013-05-24 21:10:00,57.4,40.4,30.31,NW,320,2.0,5.0,53,0.00,,,0.00,Wunderground v.1.15,2013-05-25 01:10:00,
2013-05-24 21:16:00,57.0,40.0,30.32,NW,315,2.0,5.0,53,0.00,,,0.00,Wunderground v.1.15,2013-05-25 01:16:00,
2013-05-24 21:21:00,56.7,40.2,30.32,NW,309,2.0,5.0,54,0.00,,,0.00,Wunderground v.1.15,2013-05-25 01:21:00,
2013-05-24 21:27:00,56.4,40.9,30.32,NNW,327,3.0,5.0,56,0.00,,,0.00,Wunderground v.1.15,2013-05-25 01:27:00,
2013-05-24 21:33:00,56.1,42.0,30.32,NW,324,2.0,5.0,59,0.00,,,0.00,Wunderground v.1.15,2013-05-25 01:33:00,
2013-05-24 21:39:00,55.4,41.3,30.32,NNW,327,2.0,5.0,59,0.00,,,0.00,Wunderground v.1.15,2013-05-25 01:39:00,
2013-05-24 21:45:00,55.0,40.9,30.32,NNW,347,2.0,5.0,59,0.00,,,0.00,Wunderground v.1.15,2013-05-25 01:45:00,
2013-05-24 21:51:00,54.7,41.5,30.32,NNW,335,2.0,5.0,61,0.00,,,0.00,Wunderground v.1.15,2013-05-25 01:51:00,
2013-05-24 21:57:00,54.4,41.2,30.33,NNW,330,3.0,5.0,61,0.00,,,0.00,Wunderground v.1.15,2013-05-25 01:57:00,
2013-05-24 22:02:00,54.2,40.6,30.33,NNW,331,2.0,5.0,60,0.00,,,0.00,Wunderground v.1.15,2013-05-25 02:02:00,
2013-05-24 22:08:00,54.3,39.8,30.34,NW,325,3.0,5.0,58,0.00,,,0.00,Wunderground v.1.15,2013-05-25 02:08:00,
2013-05-24 22:14:00,54.3,39.8,30.34,NW,323,4.0,5.0,58,0.00,,,0.00,Wunderground v.1.15,2013-05-25 02:14:00,
2013-05-24 22:20:00,54.1,40.1,30.34,NNW,332,4.0,5.0,59,0.00,,,0.00,Wunderground v.1.15,2013-05-25 02:20:00,
2013-05-24 22:26:00,53.9,39.9,30.34,NNW,327,3.0,5.0,59,0.00,,,0.00,Wunderground v.1.15,2013-05-25 02:26:00,
2013-05-24 22:32:00,53.7,40.1,30.34,NW,323,3.0,5.0,60,0.00,,,0.00,Wunderground v.1.15,2013-05-25 02:32:00,
2013-05-24 22:38:00,53.4,39.9,30.34,NNW,346,3.0,5.0,60,0.00,,,0.00,Wunderground v.1.15,2013-05-25 02:38:00,
2013-05-24 22:44:00,53.0,39.5,30.34,NNW,338,3.0,5.0,60,0.00,,,0.00,Wunderground v.1.15,2013-05-25 02:44:00,
2013-05-24 22:49:00,53.0,39.9,30.34,NNW,334,3.0,5.0,61,0.00,,,0.00,Wunderground v.1.15,2013-05-25 02:49:00,
2013-05-24 22:55:00,52.8,39.3,30.34,NNW,336,3.0,5.0,60,0.00,,,0.00,Wunderground v.1.15,2013-05-25 02:55:00,
2013-05-24 23:01:00,52.5,39.4,30.35,NNW,327,3.0,3.0,61,0.00,,,0.00,Wunderground v.1.15,2013-05-25 03:01:00,
2013-05-24 23:07:00,52.2,39.6,30.35,NNW,336,3.0,5.0,62,0.00,,,0.00,Wunderground v.1.15,2013-05-25 03:07:00,
2013-05-24 23:13:00,51.8,39.6,30.35,NNW,347,3.0,5.0,63,0.00,,,0.00,Wunderground v.1.15,2013-05-25 03:13:00,
2013-05-24 23:19:00,51.8,40.4,30.35,North,9,4.0,5.0,65,0.00,,,0.00,Wunderground v.1.15,2013-05-25 03:19:00,
2013-05-24 23:24:00,51.6,40.6,30.35,NNW,335,4.0,5.0,66,0.00,,,0.00,Wunderground v.1.15,2013-05-25 03:24:00,
2013-05-24 23:30:00,51.3,39.9,30.35,NNW,333,4.0,5.0,65,0.00,,,0.00,Wunderground v.1.15,2013-05-25 03:30:00,
2013-05-24 23:36:00,51.0,40.0,30.36,NNW,340,4.0,5.0,66,0.00,,,0.00,Wunderground v.1.15,2013-05-25 03:36:00,
2013-05-24 23:42:00,50.9,39.9,30.36,NNW,327,4.0,5.0,66,0.00,,,0.00,Wunderground v.1.15,2013-05-25 03:42:00,
2013-05-24 23:48:00,50.8,39.5,30.36,NW,324,4.0,5.0,65,0.00,,,0.00,Wunderground v.1.15,2013-05-25 03:48:00,
2013-05-24 23:54:00,50.8,39.1,30.36,NNW,338,6.0,8.0,64,0.00,,,0.00,Wunderground v.1.15,2013-05-25 03:54:00,